Date String (YYYY-MM-DD hh:mm:ss) UTC,Instrument flags,Ambient pressure (hPa),Sample flow (lpm),Bypass flow (lpm),Sample temperature (°C),Ambient temperature (°C),ASC tube jacket temperature (°C),LED temperature (°C),Box temperature (°C),Sample RH (%),Span deviation,Mass concentration (μg/m³),Mass concentration (μg/m³),Mass concentration (μg/m³)
DateTimeUTC,F1_M11,P_M11,Q1_M11,Q2_M11,T1_M11,T2_M11,T3_M11,T4_M11,T5_M11,U1_M11,ZSPAN_M11,X2_M11,X0_M11,X1_M11
2023-05-03 04:00:00,,0828.3,5.01,0.00,29.7,28.1,00.0,38.0,31.1,17.1,0000.0,0005.24,0011.42,0003.84
2023-05-03 04:01:00,,0828.3,5.01,0.00,29.7,28.1,00.0,38.0,31.1,17.2,0000.0,0005.19,0011.34,0003.86
2023-05-03 04:02:00,,0828.3,5.00,0.00,29.7,28.1,00.0,38.0,31.1,17.1,0000.0,0005.21,0011.49,0003.87
2023-05-03 04:03:00,,0828.4,5.00,0.00,29.7,28.2,00.0,38.0,31.2,17.1,0000.0,0005.18,0011.49,0003.87
2023-05-03 04:04:00,,0828.4,5.00,0.00,29.7,28.2,00.0,38.0,31.2,17.5,0000.0,0005.15,0011.34,0003.87
2023-05-03 04:05:00,,0828.4,4.99,0.00,29.7,28.2,00.0,38.0,31.3,17.6,0000.0,0005.12,0011.21,0003.87
2023-05-03 04:06:00,,0828.4,5.01,0.00,29.7,28.2,00.0,38.0,31.2,17.5,0000.0,0005.12,0010.58,0003.86
2023-05-03 04:07:00,,0828.6,4.99,0.00,29.7,28.2,00.0,38.0,31.2,17.6,0000.0,0005.14,0010.11,0003.85
2023-05-03 04:08:00,,0828.5,4.99,0.00,29.7,28.1,00.0,38.1,31.3,17.6,0000.0,0005.14,0009.97,0003.84
2023-05-03 04:09:00,,0828.5,5.01,0.00,29.7,28.1,00.0,38.0,31.2,17.5,0000.0,0005.12,0009.88,0003.82
2023-05-03 04:10:00,,0828.5,5.01,0.00,29.7,28.1,00.0,38.0,31.3,17.6,0000.0,0005.10,0009.81,0003.83
2023-05-03 04:11:00,,0828.5,5.00,0.00,29.7,28.1,00.0,38.1,31.2,17.6,0000.0,0005.15,0009.94,0003.81
2023-05-03 04:12:00,,0828.5,5.00,0.00,29.7,28.2,00.0,38.1,31.2,17.5,0000.0,0005.18,0009.97,0003.79
2023-05-03 04:13:00,,0828.5,5.00,0.00,29.7,28.2,00.0,38.1,31.2,17.4,0000.0,0005.15,0009.74,0003.80
2023-05-03 04:14:00,,0828.6,4.99,0.00,29.7,28.3,00.0,38.1,31.2,17.3,0000.0,0005.11,0009.59,0003.79
2023-05-03 04:15:00,,0828.5,5.00,0.00,29.7,28.3,00.0,38.1,31.2,17.4,0000.0,0005.14,0009.74,0003.79
2023-05-03 04:16:00,,0828.6,5.00,0.00,29.7,28.3,00.0,38.1,31.2,17.4,0000.0,0005.13,0009.73,0003.78
2023-05-03 04:17:00,,0828.5,5.00,0.00,29.8,28.3,00.0,38.1,31.2,17.3,0000.0,0005.09,0009.65,0003.77
2023-05-03 04:18:00,,0828.6,5.00,0.00,29.8,28.4,00.0,38.1,31.3,17.3,0000.0,0005.04,0009.42,0003.76
2023-05-03 04:19:00,,0828.6,4.99,0.00,29.8,28.4,00.0,38.1,31.3,17.3,0000.0,0005.02,0009.38,0003.77
2023-05-03 04:20:00,,0828.6,5.00,0.00,29.8,28.4,00.0,38.1,31.3,17.4,0000.0,0005.06,0009.49,0003.78
2023-05-03 04:21:00,,0828.6,5.00,0.00,29.8,28.4,00.0,38.1,31.3,17.3,0000.0,0005.02,0009.41,0003.76
2023-05-03 04:22:00,,0828.6,5.01,0.00,29.8,28.4,00.0,38.2,31.4,17.3,0000.0,0005.02,0009.47,0003.78
2023-05-03 04:23:00,,0828.6,5.01,0.00,29.8,28.4,00.0,38.2,31.4,17.3,0000.0,0005.01,0009.55,0003.78
2023-05-03 04:24:00,,0828.6,5.00,0.00,29.8,28.4,00.0,38.2,31.3,17.3,0000.0,0005.03,0009.70,0003.77
2023-05-03 04:25:00,,0828.6,5.00,0.00,29.8,28.4,00.0,38.2,31.4,17.5,0000.0,0005.08,0010.14,0003.77
2023-05-03 04:26:00,,0828.6,5.00,0.00,29.8,28.4,00.0,38.2,31.4,17.8,0000.0,0005.06,0010.48,0003.77
2023-05-03 04:27:00,,0828.6,5.00,0.00,29.8,28.4,00.0,38.2,31.4,18.1,0000.0,0005.05,0010.64,0003.78
2023-05-03 04:28:00,,0828.7,5.00,0.00,29.8,28.3,00.0,38.2,31.4,18.2,0000.0,0005.04,0010.55,0003.79
2023-05-03 04:29:00,,0828.6,5.00,0.00,29.8,28.3,00.0,38.2,31.4,18.3,0000.0,0005.02,0010.50,0003.79
2023-05-03 04:30:00,,0828.6,5.01,0.00,29.8,28.2,00.0,38.2,31.4,18.4,0000.0,0005.01,0010.44,0003.79
2023-05-03 04:31:00,,0828.6,5.01,0.00,29.8,28.2,00.0,38.2,31.3,18.4,0000.0,0004.97,0010.31,0003.79
2023-05-03 04:32:00,,0828.6,5.01,0.00,29.8,28.2,00.0,38.2,31.3,18.4,0000.0,0004.93,0010.23,0003.78
2023-05-03 04:33:00,,0828.6,5.00,0.00,29.8,28.2,00.0,38.2,31.3,18.4,0000.0,0004.91,0010.17,0003.77
2023-05-03 04:34:00,,0828.6,5.00,0.00,29.8,28.1,00.0,38.2,31.3,18.5,0000.0,0004.89,0010.16,0003.77
2023-05-03 04:35:00,,0828.6,5.00,0.00,29.7,28.1,00.0,38.2,31.3,18.5,0000.0,0004.85,0010.03,0003.76
2023-05-03 04:36:00,,0828.6,5.00,0.00,29.7,28.1,00.0,38.2,31.3,18.5,0000.0,0004.81,0009.98,0003.76
2023-05-03 04:37:00,,0828.7,5.00,0.00,29.7,28.1,00.0,38.2,31.3,18.5,0000.0,0004.84,0010.06,0003.76
2023-05-03 04:38:00,,0828.7,5.00,0.00,29.7,28.1,00.0,38.2,31.3,18.4,0000.0,0004.90,0009.97,0003.76
2023-05-03 04:39:00,,0828.8,5.00,0.00,29.7,28.1,00.0,38.2,31.3,18.4,0000.0,0004.95,0010.74,0003.76
2023-05-03 04:40:00,,0828.7,5.00,0.00,29.7,28.1,00.0,38.2,31.3,18.4,0000.0,0004.97,0011.06,0003.75
2023-05-03 04:41:00,,0828.7,5.00,0.00,29.7,28.2,00.0,38.1,31.3,18.4,0000.0,0004.98,0011.15,0003.73
2023-05-03 04:42:00,,0828.7,5.00,0.00,29.7,28.2,00.0,38.1,31.3,18.5,0000.0,0004.97,0011.22,0003.72
2023-05-03 04:43:00,,0828.7,5.00,0.00,29.7,28.1,00.0,38.1,31.3,18.5,0000.0,0004.97,0011.27,0003.72
2023-05-03 04:44:00,,0828.7,5.00,0.00,29.7,28.1,00.0,38.1,31.3,18.6,0000.0,0004.95,0011.22,0003.72
2023-05-03 04:45:00,,0828.7,5.01,0.00,29.7,28.1,00.0,38.1,31.2,18.7,0000.0,0004.95,0011.18,0003.70
2023-05-03 04:46:00,,0828.7,5.00,0.00,29.7,28.0,00.0,38.1,31.2,18.7,0000.0,0004.98,0011.60,0003.69
2023-05-03 04:47:00,,0828.7,4.99,0.00,29.7,27.9,00.0,38.1,31.2,18.7,0000.0,0004.97,0011.55,0003.67
2023-05-03 04:48:00,,0828.7,4.99,0.00,29.6,27.9,00.0,38.1,31.1,18.7,0000.0,0004.94,0011.19,0003.67
2023-05-03 04:49:00,,0828.6,5.00,0.00,29.6,27.8,00.0,38.1,31.1,18.7,0000.0,0004.88,0011.10,0003.64
2023-05-03 04:50:00,,0828.6,5.00,0.00,29.6,27.8,00.0,38.1,31.1,18.7,0000.0,0004.85,0010.47,0003.63
2023-05-03 04:51:00,,0828.6,5.00,0.00,29.5,27.7,00.0,38.1,31.0,18.6,0000.0,0004.85,0010.26,0003.63
2023-05-03 04:52:00,,0828.6,5.00,0.00,29.5,27.7,00.0,38.0,31.0,18.6,0000.0,0004.82,0010.18,0003.61
2023-05-03 04:53:00,,0828.6,5.00,0.00,29.5,27.7,00.0,38.0,31.0,18.6,0000.0,0004.84,0010.16,0003.61
2023-05-03 04:54:00,,0828.7,4.99,0.00,29.5,27.7,00.0,38.0,31.0,18.5,0000.0,0004.85,0010.13,0003.59
2023-05-03 04:55:00,,0828.7,4.99,0.00,29.5,27.7,00.0,38.0,31.0,18.5,0000.0,0004.88,0010.24,0003.60
2023-05-03 04:56:00,,0828.7,4.99,0.00,29.5,27.7,00.0,38.0,31.0,18.6,0000.0,0004.85,0010.13,0003.59
2023-05-03 04:57:00,,0828.7,5.01,0.00,29.5,27.7,00.0,38.0,31.0,18.5,0000.0,0004.84,0009.78,0003.59
2023-05-03 04:58:00,,0828.7,5.00,0.00,29.5,27.7,00.0,38.0,31.0,18.5,0000.0,0004.90,0009.87,0003.59
2023-05-03 04:59:00,,0828.7,4.99,0.00,29.4,27.7,00.0,38.0,31.0,18.4,0000.0,0004.87,0009.98,0003.58
